TimeEST,TemperatureF,Dew PointF,Humidity,Sea Level PressureIn,VisibilityMPH,Wind Direction,Wind SpeedMPH,Gust SpeedMPH,PrecipitationIn,Events,Conditions,WindDirDegrees,DateUTC
12:15 AM,28.4,28.2,99,30.29,5.0,Calm,Calm,-,N/A,,Clear,0,2013-01-04 05:15:00
12:35 AM,28.2,27.9,99,30.29,5.0,Calm,Calm,-,N/A,,Clear,0,2013-01-04 05:35:00
12:55 AM,28.2,27.9,99,30.29,7.0,Calm,Calm,-,N/A,,Clear,0,2013-01-04 05:55:00
1:15 AM,28.2,27.7,98,30.28,7.0,Calm,Calm,-,N/A,,Clear,0,2013-01-04 06:15:00
1:35 AM,26.8,26.2,98,30.29,7.0,Calm,Calm,-,N/A,,Clear,0,2013-01-04 06:35:00
1:55 AM,26.8,25.9,96,30.30,10.0,Calm,Calm,-,N/A,,Clear,0,2013-01-04 06:55:00
2:15 AM,27.0,26.1,96,30.31,10.0,Calm,Calm,-,N/A,,Clear,0,2013-01-04 07:15:00
2:35 AM,26.6,25.7,96,30.31,10.0,Calm,Calm,-,N/A,,Clear,0,2013-01-04 07:35:00
2:55 AM,26.1,25.5,98,30.30,7.0,Calm,Calm,-,N/A,,Clear,0,2013-01-04 07:55:00
3:35 AM,25.9,25.3,98,30.30,7.0,Calm,Calm,-,N/A,,Clear,0,2013-01-04 08:35:00
3:55 AM,25.7,24.8,96,30.30,7.0,Calm,Calm,-,N/A,,Clear,0,2013-01-04 08:55:00
4:15 AM,24.8,23.9,96,30.30,7.0,Calm,Calm,-,N/A,,Clear,0,2013-01-04 09:15:00
7:15 AM,23.0,21.7,95,30.32,10.0,Calm,Calm,-,N/A,,Clear,0,2013-01-04 12:15:00
7:35 AM,23.0,22.1,96,30.33,5.0,Calm,Calm,-,N/A,,Clear,0,2013-01-04 12:35:00
7:55 AM,23.5,22.5,96,30.33,7.0,Calm,Calm,-,N/A,,Clear,0,2013-01-04 12:55:00
8:15 AM,23.0,21.9,96,30.33,5.0,Calm,Calm,-,N/A,,Clear,0,2013-01-04 13:15:00
8:35 AM,25.2,24.1,96,30.33,7.0,Calm,Calm,-,N/A,,Clear,0,2013-01-04 13:35:00
8:55 AM,26.8,25.9,96,30.33,7.0,Calm,Calm,-,N/A,,Clear,0,2013-01-04 13:55:00
9:15 AM,29.5,28.2,95,30.33,7.0,Calm,Calm,-,N/A,,Clear,0,2013-01-04 14:15:00
9:35 AM,32.2,28.9,88,30.34,10.0,Calm,Calm,-,N/A,,Clear,0,2013-01-04 14:35:00
9:55 AM,33.6,25.9,73,30.35,10.0,West,3.5,-,N/A,,Clear,280,2013-01-04 14:55:00
10:15 AM,34.3,25.5,70,30.36,10.0,West,4.6,-,N/A,,Clear,270,2013-01-04 15:15:00
10:35 AM,35.6,26.4,69,30.35,10.0,Calm,Calm,-,N/A,,Clear,0,2013-01-04 15:35:00
10:55 AM,36.9,27.1,68,30.35,10.0,NW,3.5,-,N/A,,Clear,310,2013-01-04 15:55:00
11:15 AM,37.9,27.9,67,30.33,10.0,NW,5.8,-,N/A,,Clear,310,2013-01-04 16:15:00
11:35 AM,39.7,27.0,60,30.32,10.0,West,3.5,-,N/A,,Clear,260,2013-01-04 16:35:00
11:55 AM,41.2,25.7,54,30.31,10.0,WSW,6.9,-,N/A,,Clear,240,2013-01-04 16:55:00
12:15 PM,42.8,24.4,48,30.30,10.0,WSW,6.9,-,N/A,,Clear,250,2013-01-04 17:15:00
12:35 PM,44.1,23.0,43,30.29,10.0,West,5.8,-,N/A,,Clear,260,2013-01-04 17:35:00
12:55 PM,45.0,21.9,40,30.28,10.0,West,6.9,-,N/A,,Clear,280,2013-01-04 17:55:00
1:15 PM,45.3,20.7,38,30.26,10.0,West,6.9,-,N/A,,Clear,270,2013-01-04 18:15:00
1:35 PM,46.0,21.2,37,30.26,10.0,WSW,9.2,-,N/A,,Clear,250,2013-01-04 18:35:00
1:55 PM,46.2,19.9,35,30.25,10.0,WSW,6.9,-,N/A,,Clear,250,2013-01-04 18:55:00
2:15 PM,46.8,20.5,35,30.24,10.0,WSW,5.8,-,N/A,,Clear,250,2013-01-04 19:15:00
2:35 PM,47.5,20.7,35,30.24,10.0,West,6.9,-,N/A,,Clear,280,2013-01-04 19:35:00
2:55 PM,48.6,21.4,34,30.23,10.0,NW,3.5,-,N/A,,Clear,310,2013-01-04 19:55:00
3:15 PM,48.2,19.9,33,30.23,10.0,SW,5.8,-,N/A,,Clear,230,2013-01-04 20:15:00
3:35 PM,48.2,19.6,32,30.24,10.0,West,5.8,-,N/A,,Clear,270,2013-01-04 20:35:00
3:55 PM,48.2,20.1,33,30.25,10.0,WNW,6.9,-,N/A,,Clear,300,2013-01-04 20:55:00
4:15 PM,48.4,20.5,33,30.24,10.0,WSW,4.6,-,N/A,,Clear,250,2013-01-04 21:15:00
4:35 PM,47.8,19.9,33,30.24,10.0,WSW,3.5,-,N/A,,Mostly Cloudy,250,2013-01-04 21:35:00
4:55 PM,48.0,19.4,32,30.23,10.0,Calm,Calm,-,N/A,,Overcast,0,2013-01-04 21:55:00
5:15 PM,47.8,19.6,33,30.24,10.0,SW,3.5,-,N/A,,Overcast,220,2013-01-04 22:15:00
5:35 PM,47.3,20.3,34,30.25,10.0,Calm,Calm,-,N/A,,Overcast,0,2013-01-04 22:35:00
5:55 PM,46.8,20.5,35,30.26,10.0,Calm,Calm,-,N/A,,Overcast,0,2013-01-04 22:55:00
6:35 PM,46.4,21.7,38,30.27,10.0,Calm,Calm,-,N/A,,Overcast,0,2013-01-04 23:35:00
6:55 PM,45.3,21.6,39,30.29,10.0,NNW,5.8,-,N/A,,Mostly Cloudy,340,2013-01-04 23:55:00
7:15 PM,43.5,21.0,41,30.29,10.0,NNW,3.5,-,N/A,,Scattered Clouds,330,2013-01-05 00:15:00
7:35 PM,42.4,20.1,41,30.31,10.0,Calm,Calm,-,N/A,,Clear,0,2013-01-05 00:35:00
7:55 PM,41.7,19.6,41,30.32,10.0,Calm,Calm,-,N/A,,Clear,0,2013-01-05 00:55:00
8:15 PM,40.3,20.1,45,30.31,10.0,Calm,Calm,-,N/A,,Clear,0,2013-01-05 01:15:00
8:35 PM,39.4,19.4,45,30.32,10.0,North,4.6,-,N/A,,Clear,350,2013-01-05 01:35:00
8:55 PM,39.2,18.9,44,30.32,10.0,Calm,Calm,-,N/A,,Clear,0,2013-01-05 01:55:00
9:15 PM,36.3,23.4,59,30.33,10.0,Calm,Calm,-,N/A,,Clear,0,2013-01-05 02:15:00
9:35 PM,35.1,21.2,57,30.34,10.0,Calm,Calm,-,N/A,,Clear,0,2013-01-05 02:35:00
9:55 PM,36.3,19.2,50,30.34,10.0,North,6.9,-,N/A,,Clear,350,2013-01-05 02:55:00
10:15 PM,36.5,19.2,50,30.33,10.0,North,5.8,-,N/A,,Clear,350,2013-01-05 03:15:00
10:35 PM,35.6,19.4,52,30.33,10.0,North,4.6,-,N/A,,Clear,350,2013-01-05 03:35:00
10:55 PM,34.9,19.8,54,30.34,10.0,Calm,Calm,-,N/A,,Clear,0,2013-01-05 03:55:00
11:15 PM,34.7,19.8,54,30.34,10.0,NW,3.5,-,N/A,,Clear,320,2013-01-05 04:15:00
11:35 PM,33.1,20.3,59,30.33,10.0,Calm,Calm,-,N/A,,Clear,0,2013-01-05 04:35:00
11:55 PM,32.7,21.2,63,30.33,10.0,Calm,Calm,-,N/A,,Clear,0,2013-01-05 04:55:00